Location: Home
(42.5358°N, 72.7383°W)
Time: 07:10:56
(UTC-05:00)

Envisat - Pass Details

Date: 29 October 2021
Orbit: 764 x 766 km, 98.2° (Epoch: 07 December)

Event Time Altitude Azimuth Distance (km) Brightness Sun altitude
Rises 05:32:58 0° 18° (NNE) 3,241 6.5 -20.4°
Reaches altitude 10° 05:35:21 10° 24° (NNE) 2,310 5.8 -20.0°
Maximum altitude 05:40:18 50° 99° (E) 974 3.9 -19.1°
Drops below altitude 10° 05:45:11 10° 175° (S) 2,293 5.5 -18.2°
Sets 05:47:33 0° 180° (S) 3,214 6.3 -17.8°
